Weather in Sandown

United Kingdom     50°39′14″N   1°09′27″W
temp.,
°C
wind,
m/s
gust,
m/s
humid.,
%
clouds,
%
prec.,
mm/h
press.,
hPa
HPBL,
m
24 june, thu
thu2401:00+13nw358877 0.0 1023137
04:00+11nnw33905 0.0 102390
07:00+12nnw2484100 0.0 1023144
10:00+16nw3479100 0.0 1023323
13:00+18w4472100 0.0 1022437
16:00+16wsw4581100 0.1 1022215
19:00+15wsw578598 0.1 1021202
22:00+15wsw5989100 0.2 1021195
25 june, fri
fri2501:00+14w4109477 0.2 1020255
04:00+14w5990100 0.1 1019314
07:00+14wsw3596100 0.8 1018224
10:00+14wsw3598100 4.7 1017295
13:00+14nnw448751 7.3 1017410
16:00+16wsw237332 0.2 1016306
19:00+16wnw57670 0.2 1016398
22:00+12wnw34830 0.0 1017132
26 june, sat
sat2601:00+11nw11860 0.0 101756
04:00+10ne11850 0.0 101657
07:00+12ene12810 0.0 1017141
10:00+14ese33740 0.0 1017605
13:00+15se44685 0.0 1017646
16:00+16se33660 0.0 1017575
19:00+15se336948 0.0 1017322
22:00+13ene1181100 0.0 101719
27 june, sun
sun2701:00+13nne3585100 0.0 1017112
04:00+14ne598798 0.0 1015302
07:00+14nne7129088 0.1 1014398
10:00+17ne81177100 0.0 1014491
13:00+16ne81493100 2.6 1012500
16:00+15ese8119741 6.5 1012407
19:00+16e579214 6.6 1012267
22:00+15ene349518 0.2 101366
28 june, mon
mon2801:00+15ne3496100 0.3 101367
04:00+15se1296100 0.1 101324
07:00+15nne0196100 0.5 101341
10:00+14sw4595100 0.9 1013212
13:00+13wsw5792100 2.8 1015402
16:00+14w3388100 0.3 1015322
19:00+15n2283100 0.3 1015271
22:00+13n33929 0.0 1016107